Wetterdaten Herbst 2017

Datum T max T min Regen
01.09.2017 16.9 °C 11.7 °C 3.8 mm
02.09.2017 17.6 °C 10.8 °C 0 mm
03.09.2017 17.5 °C 9.1 °C 0.2 mm
04.09.2017 19 °C 8.7 °C 0.2 mm
05.09.2017 24.4 °C 14.2 °C 1.4 mm
06.09.2017 20.1 °C 14.6 °C 3.2 mm
07.09.2017 18.4 °C 12 °C 0.2 mm
08.09.2017 18.8 °C 10.7 °C 0 mm
09.09.2017 16.9 °C 12.8 °C 6 mm
10.09.2017 17.4 °C 11 °C 0 mm
11.09.2017 17.6 °C 10.4 °C 3.4 mm
12.09.2017 16.1 °C 10.7 °C 1.6 mm
13.09.2017 19.8 °C 10.9 °C 10.4 mm
14.09.2017 19.9 °C 10.4 °C 14.2 mm
15.09.2017 15.5 °C 8.8 °C 2.8 mm
16.09.2017 14.8 °C 5.3 °C 2.2 mm
17.09.2017 13.8 °C 5.7 °C 11 mm
18.09.2017 13.8 °C 8.9 °C 4 mm
19.09.2017 14 °C 9 °C 0.6 mm
20.09.2017 16.2 °C 8.1 °C 0 mm
21.09.2017 17.8 °C 5.7 °C 0 mm
22.09.2017 19.2 °C 6.6 °C 0 mm
23.09.2017 18.5 °C 7.8 °C 0 mm
24.09.2017 18.4 °C 6.7 °C 0 mm
25.09.2017 19.1 °C 6.2 °C 0 mm
26.09.2017 19.2 °C 9.7 °C 1 mm
27.09.2017 19.3 °C 9.6 °C 0 mm
28.09.2017 21.7 °C 11.2 °C 0 mm
30.09.2017 22.7 °C 11.2 °C 5.8 mm
01.10.2017 15.3 °C 8.6 °C 0.2 mm
02.10.2017 17.7 °C 8.8 °C 2.4 mm
03.10.2017 14.8 °C 8.9 °C 18.4 mm
04.10.2017 14.9 °C 5.8 °C 0 mm
05.10.2017 20.2 °C 8.3 °C 6 mm
06.10.2017 11.4 °C 6.9 °C 0.8 mm
07.10.2017 13.3 °C 7.2 °C 1.4 mm
08.10.2017 14.3 °C 8.9 °C 2.8 mm
09.10.2017 14.7 °C 9.2 °C 8.4 mm
10.10.2017 13.4 °C 7.6 °C 0.4 mm
11.10.2017 17.4 °C 9.1 °C 0 mm
12.10.2017 17.2 °C 8.1 °C 0.4 mm
13.10.2017 19.3 °C 7.6 °C 0 mm
14.10.2017 19.8 °C 7.5 °C 0 mm
15.10.2017 20.6 °C 8.4 °C 0 mm
16.10.2017 22.3 °C 8.2 °C 0 mm
17.10.2017 20.9 °C 7.2 °C 0 mm
18.10.2017 19.6 °C 6.3 °C 0 mm
19.10.2017 20 °C 7.2 °C 0 mm
20.10.2017 18.2 °C 10.6 °C 0 mm
21.10.2017 19.5 °C 10.3 °C 5.2 mm
22.10.2017 12.8 °C 7.2 °C 5.2 mm
23.10.2017 11.1 °C 7.1 °C 0 mm
24.10.2017 15.4 °C 9.3 °C 0.8 mm
25.10.2017 18.8 °C 10.4 °C 0 mm
26.10.2017 17 °C 10.1 °C 0 mm
27.10.2017 12.9 °C 8.4 °C 3.8 mm
28.10.2017 10.6 °C 5.8 °C 0 mm
29.10.2017 11.8 °C 5.4 °C 4.2 mm
30.10.2017 9.3 °C 2.6 °C 0 mm
31.10.2017 8 °C 0.2 °C 0 mm
01.11.2017 11.1 °C 4.8 °C 0.6 mm
02.11.2017 13.8 °C 3.9 °C 0 mm
03.11.2017 13.4 °C 4.8 °C 0 mm
04.11.2017 15.8 °C 3.8 °C 0 mm
05.11.2017 10.6 °C 5.5 °C 11.8 mm
06.11.2017 6.9 °C 4.2 °C 0.2 mm
07.11.2017 7.7 °C 4.6 °C 0.4 mm
08.11.2017 6.5 °C 5.8 °C 2.8 mm
09.11.2017 7.3 °C 5.3 °C 0 mm
10.11.2017 7.1 °C 4.6 °C 3.8 mm
11.11.2017 9.1 °C 4.4 °C 6.8 mm
12.11.2017 9.1 °C 1.9 °C 15 mm
13.11.2017 5.8 °C 0.5 °C 1.4 mm
14.11.2017 4.9 °C -0.1 °C 0 mm
15.11.2017 5 °C -1.1 °C 0 mm
16.11.2017 3.1 °C -1.7 °C 0 mm
17.11.2017 4.3 °C 1.1 °C 0.4 mm
18.11.2017 6.7 °C 3.9 °C 0 mm
19.11.2017 5.9 °C 3.1 °C 2.6 mm
20.11.2017 5.7 °C 1.3 °C 0.6 mm
21.11.2017 8.8 °C 3.2 °C 5.2 mm
22.11.2017 10.9 °C 0 °C 0.2 mm
23.11.2017 15.4 °C 1.1 °C 0 mm
24.11.2017 16.2 °C 9.6 °C 3.4 mm
25.11.2017 9.8 °C 2.2 °C 17.4 mm
26.11.2017 4.2 °C -0.1 °C 0.8 mm
27.11.2017 6 °C 1.2 °C 0 mm
28.11.2017 5.5 °C 3 °C 2.2 mm
29.11.2017 4.1 °C -1.8 °C 0.2 mm
30.11.2017 2.9 °C -2.2 °C 3.2 mm
 Hinweis zur Datenqualität
∅ Temperatur

9.9 °C

Abweichung vom Mittel

-0.4 °C

Niederschlag

211.4 mm

Abweichung vom Mittel

138 %

24.4 °C

Lufttemperatur
05.09.2017

1030 hPa

Luftdruck
27.10.2017

40.3 km/h

Windböen
29.10.2017

211.4 mm

Niederschlag
 

-2.2 °C

Lufttemperatur
30.11.2017

-1.5 °C

Bodentemperatur 5cm
01.01.1970

994 hPa

Luftdruck
12.11.2017
 Hinweis zur Datenqualität